Regional Weather Roundup
Issued by NWS

Home | Current Version | Previous Version | Text Only | Print | Product List | Glossary Off
Versions: 1 2 3 4 5 6 7 8 9 10 11 12 13 14 15 16 17 18 19 20 21 22 23 24 25 26 27 28 29 30 31 32 33 34 35 36 37 38 39 40 41 42 43 44 45 46 47 48 49 50

000
ASUS43 KLSX 230307
RWRMO

WEATHER SUMMARY FOR MISSOURI
NATIONAL WEATHER SERVICE SPRINGFIELD MO
1000 PM CDT TUE JUL 22 2014

NOTE: "FAIR" INDICATES FEW OR NO CLOUDS BELOW 12,000 FEET WITH NO
       SIGNIFICANT WEATHER AND/OR OBSTRUCTIONS TO VISIBILITY.
       CURRENT SKY AND/OR WEATHER CONDITIONS ARE NOT AVAILABLE FOR
       CHILLICOTHE AND FARMINGTON.

MOZ001>031-035>038-043-044-053-054-230400-
...NORTHERN AND WESTERN MISSOURI...

CITY           SKY/WX    TMP DP  RH WIND       PRES   REMARKS
KANSAS CTY INT CLEAR     86  78  77 NE3       30.05R HX  98
KANSAS C DTWN  CLEAR     89  77  67 NE7       30.02R HX 101
LEE`S SUMMIT   CLEAR     87  76  69 NE5       30.05R HX  97
ST JOSEPH      CLEAR     82  79  90 N8        30.04R HX  92
CHILLICOTHE      N/A     83  78  85 CALM      30.03R HX  93
KIRKSVILLE     PTCLDY    80  77  90 NE5       30.03F

$$
MOZ066>068-077>081-088>096-101>105-230400-
...SOUTHWEST MISSOURI...

CITY           SKY/WX    TMP DP  RH WIND       PRES   REMARKS
SPRINGFIELD    CLEAR     81  76  84 S5        30.07R
JOPLIN         CLEAR     84  75  74 S7        30.06R HX  92

$$
MOZ032>034-039>042-045>050-055>058-069>072-230400-
...CENTRAL MISSOURI...

CITY           SKY/WX    TMP DP  RH WIND       PRES   REMARKS
COLUMBIA       CLEAR     83  78  85 NE5       30.05R HX  93
JEFFERSON CITY PTCLDY    87  78  74 CALM      30.02R HX 100
ROLLA          PTCLDY    80  73  79 SW7       30.05R
SEDALIA        PTCLDY    83  78  85 SE3       30.05R HAZE    HX  93
WHITEMAN AFB   CLEAR     81  76  86 E2        30.03R
OSAGE BEACH    MOCLDY    81  75  83 CALM      30.04S

$$
MOZ051-052-059>065-230400-
...EAST CENTRAL MISSOURI...

CITY           SKY/WX    TMP DP  RH WIND       PRES   REMARKS
ST LOUIS INTL  MOCLDY    86  71  60 SW8       30.02S HX  91
SPIRIT OF STL  MOCLDY    83  73  72 S6        30.01S
ST CHARLES     MOCLDY    79  76  90 NE5       30.01R

$$
MOZ072>076-082>087-097>100-106>115-230400-
...SOUTH CENTRAL AND SOUTHEAST MISSOURI...

CITY           SKY/WX    TMP DP  RH WIND       PRES   REMARKS
CAPE GIRARDEAU CLEAR     74  70  87 CALM      30.06R
FARMINGTON     PTCLDY    75  68  78 SE3       30.09S
POPLAR BLUFF   PTCLDY    72  68  87 SE3       30.04S
WEST PLAINS    CLEAR     77  71  82 S3        30.10R

$$


USA.gov is the U.S. government's official web portal to all federal, state and local government web resources and services.